FW6327 Weather Reports


time (UTC)temp
C
wind
direction
speed
KPH
gust
KPH
rain 1hr
cm
rain 24hr
cm
rain mn
cm
humidity
%
barometer
mb
20260508001512 10 217 1.6 6.4 0.05 2.21 2.21 93 1000.5
20260508000011 10 232 4.8 12.9 0.03 2.18 2.18 93 1000.5
20260507234508 10 227 6.4 12.9 0.00 2.16 2.16 92 1000.5
20260507233005 10 208 4.8 8.0 0.00 2.16 2.16 92 999.9
20260507231502 10 182 4.8 11.3 0.00 2.16 2.16 92 999.9
20260507230003 11 190 1.6 4.8 0.00 2.16 2.16 92 999.9
20260507224504 11 190 0.0 3.2 0.00 2.16 2.16 92 999.9
20260507223100 11 190 0.0 0.0 0.00 2.16 2.16 92 1000.0
20260507221557 11 190 0.0 4.8 0.00 2.16 2.16 92 999.9
20260507220055 11 190 1.6 8.0 0.00 2.16 2.16 92 1000.0
20260507214554 11 161 1.6 4.8 0.00 2.16 2.16 92 1000.1
20260507213053 11 161 0.0 4.8 0.03 2.16 2.16 92 1000.0
20260507211550 11 161 1.6 8.0 0.03 2.16 2.16 92 1000.3
20260507210049 11 186 1.6 12.9 0.03 2.16 2.16 92 1000.3
20260507204552 11 211 0.0 9.7 0.05 2.13 2.13 92 999.9
20260507203047 11 241 4.8 9.7 0.20 2.13 2.13 93 999.9
20260507201544 10 225 0.0 3.2 0.33 2.13 2.13 93 999.6
20260507200038 10 225 0.0 3.2 0.41 2.13 2.13 93 1000.1
20260507194535 10 225 0.0 3.2 0.48 2.08 2.08 92 1000.5
20260507193031 10 226 0.0 4.8 0.51 1.93 1.93 92 1001.7
20260507191528 10 220 3.2 6.4 0.61 1.83 1.83 92 1002.2
20260507190027 10 233 0.0 9.7 0.71 1.75 1.75 91 1002.1
20260507184525 10 215 3.2 11.3 0.89 1.60 1.60 91 1002.5
20260507183026 10 237 3.2 12.9 1.19 1.42 1.42 91 1002.6
20260507181521 10 218 6.4 12.9 1.09 1.22 1.22 91 1002.8
20260507180018 11 210 11.3 24.1 0.97 0.99 0.99 90 1003.2
20260507174615 11 223 11.3 22.5 0.71 0.71 0.71 90 1003.2
20260507173025 11 219 11.3 17.7 0.20 0.20 0.20 90 1002.5
20260507171508 12 180 11.3 25.7 0.13 0.13 0.13 89 1002.4
20260507170003 12 228 12.9 29.0 0.05 0.05 0.05 88 1002.7
20260507164600 12 246 11.3 22.5 0.00 0.00 0.00 87 1002.6
20260507163115 13 211 12.9 25.7 0.00 0.00 0.00 86 1003.3
20260507161555 13 210 16.1 24.1 0.00 0.00 0.00 85 1003.4
20260507160054 13 204 9.7 19.3 0.00 0.00 0.00 85 1004.1
20260507154649 13 178 11.3 32.2 0.00 0.00 0.00 85 1004.4
20260507153044 13 225 12.9 25.7 0.00 0.00 0.00 85 1004.6
20260507151543 13 232 16.1 37.0 0.00 0.00 0.00 85 1005.0
20260507150036 13 230 17.7 33.8 0.00 0.00 0.00 85 1005.3
20260507144549 13 275 16.1 33.8 0.00 0.00 0.00 85 1005.2
20260507143030 13 200 16.1 29.0 0.00 0.00 0.00 85 1005.8
20260507141527 13 236 14.5 22.5 0.00 0.00 0.00 85 1006.0
20260507140024 13 171 17.7 32.2 0.00 0.00 0.00 85 1006.0
20260507134522 13 203 14.5 24.1 0.00 0.00 0.00 85 1006.1
20260507133019 13 217 12.9 30.6 0.00 0.00 0.00 86 1006.2
20260507131516 13 240 14.5 25.7 0.00 0.00 0.00 87 1006.6
20260507130013 13 216 14.5 33.8 0.00 0.00 0.00 86 1006.8
20260507124613 13 164 14.5 30.6 0.00 0.00 0.00 86 1007.0
20260507123010 13 228 6.4 24.1 0.00 0.00 0.00 86 1006.9
20260507121505 13 249 8.0 35.4 0.00 0.00 0.00 87 1006.8
20260507120002 13 174 12.9 38.6 0.00 0.00 0.00 87 1006.9
20260507114601 13 234 12.9 27.4 0.00 0.00 0.00 88 1007.0
20260507113057 13 214 8.0 22.5 0.00 0.00 0.00 87 1007.5
20260507111554 13 188 9.7 25.7 0.00 0.00 0.00 87 1008.2
20260507110054 13 169 11.3 27.4 0.00 0.00 0.00 87 1008.1
20260507104555 13 226 12.9 24.1 0.00 0.00 0.00 87 1007.7
20260507103045 12 208 8.0 17.7 0.00 0.00 0.00 88 1007.9
20260507101548 12 240 12.9 25.7 0.00 0.00 0.00 88 1008.2
20260507100043 12 217 19.3 29.0 0.00 0.00 0.00 88 1008.7
20260507094544 12 211 9.7 27.4 0.00 0.00 0.00 88 1008.3
20260507093037 12 215 12.9 27.4 0.00 0.00 0.00 88 1008.8
20260507091532 12 238 11.3 29.0 0.00 0.00 0.00 88 1008.7
20260507090034 12 246 16.1 27.4 0.00 0.00 0.00 88 1009.1
20260507084531 12 236 12.9 22.5 0.00 0.00 0.00 89 1009.0
20260507083023 12 198 6.4 14.5 0.00 0.00 0.00 88 1009.1
20260507081524 12 219 4.8 8.0 0.00 0.00 0.00 88 1008.9
20260507080016 12 183 1.6 14.5 0.00 0.00 0.00 88 1009.3
20260507074512 12 252 9.7 20.9 0.00 0.00 0.00 88 1009.9
20260507073009 11 252 6.4 17.7 0.00 0.00 0.00 89 1010.1
20260507071504 11 207 6.4 12.9 0.00 0.00 0.00 89 1010.7
20260507070002 10 191 3.2 8.0 0.00 0.00 0.00 88 1010.8
20260507064558 10 192 6.4 9.7 0.00 0.00 0.00 88 1011.0
20260507063056 10 201 3.2 6.4 0.00 0.00 0.00 87 1010.8
20260507061551 11 223 3.2 6.4 0.00 0.00 0.00 86 1011.1
20260507060055 11 200 4.8 9.7 0.00 0.00 0.00 86 1011.2
20260507054549 11 221 3.2 9.7 0.00 0.00 0.00 86 1011.6
20260507053042 11 245 6.4 11.3 0.00 0.00 0.00 85 1012.1
20260507051539 11 218 8.0 14.5 0.00 0.00 0.00 85 1012.4
20260507050034 11 217 6.4 9.7 0.00 0.00 0.00 85 1012.9
20260507044546 11 236 6.4 9.7 0.00 0.00 0.00 85 1013.1
20260507043026 11 232 4.8 9.7 0.00 0.00 0.00 86 1013.4
20260507041521 11 240 4.8 11.3 0.00 0.00 0.00 86 1014.0
20260507040019 11 232 4.8 11.3 0.00 0.00 0.00 86 1014.3
20260507034516 11 233 4.8 9.7 0.00 0.00 0.00 86 1014.5
20260507033011 11 220 3.2 8.0 0.00 0.00 0.00 86 1014.6
20260507031506 11 230 4.8 8.0 0.00 0.00 0.00 85 1014.8
20260507030106 11 229 3.2 8.0 0.00 0.00 0.00 85 1015.1
20260507024601 12 219 3.2 9.7 0.00 0.00 0.00 84 1015.3
20260507023058 12 236 6.4 9.7 0.00 0.00 0.00 83 1015.4
20260507021558 12 240 6.4 12.9 0.00 0.00 0.00 83 1015.6
20260507020054 12 228 6.4 11.3 0.00 0.00 0.00 84 1015.6
20260507014554 12 231 4.8 12.9 0.00 0.00 0.00 82 1015.6
20260507013058 12 205 3.2 12.9 0.00 0.00 0.00 82 1015.7
20260507011548 13 205 4.8 12.9 0.00 0.00 0.00 80 1015.8
20260507010047 13 209 4.8 9.7 0.00 0.00 0.00 79 1015.8
20260507004545 13 223 4.8 9.7 0.00 0.00 0.00 79 1016.2
20260507003044 13 209 6.4 12.9 0.00 0.00 0.00 78 1015.9